www.pogodaiklimat.ru

Погода и климат >> Архив погоды >> Канада >> Arviat


ПОГОДА в Arviat

  • Прогноз погоды в Arviat
  • Монитор погоды в Arviat
  • Климат города

АРХИВ ПОГОДЫ в Arviat

Время (UTC), дата Ветер
(напр.,м/с)
 
Видим.   Явления Облачность Т
(С)
Тd
(С)
f
(%)
Тe
(С)
Тes
(С)
Комфортность P
(гПа)
Po
(гПа)
Тmin
(С)
Tmax
(С)
R
(мм)
R24
(мм)
S
(см)
18 10.11 С 1 16 км 10/10 600 м
[]
+2.5 -0.1 83 +2 +2 1014.8 987.2 +0.3 +2.5
21 10.11 СЗ 1 16 км ясно +5.2 +0.4 71 +4 +4 1013.6 986.1
00 11.11 С 1 16 км ясно +2.8 +0.4 84 +3 +3 1014.3 986.7 +0.4 +5.8
03 11.11 Ю 2 16 км 10/10 600 м
[]
+0.8 -0.1 94 -3 -3 1015.9 988.2
06 11.11 Ю 1 16 км 10/10 500 м
[]
+1.7 +0.5 92 -0 -0 1016.8 989.1 +0.4 +5.8
09 11.11 Ю 1 16 км 10/10 200 м
[]
+2.4 +1.1 91 +2 +2 1017.3 989.7
12 11.11 Ю 1 16 км 10/10 300 м
[]
+2.2 +1.2 93 +2 +2 1018.1 990.4 +0.4 +5.8
15 11.11 Ю 1 16 км 10/10 300 м
[]
+2.5 +1.2 91 +2 +2 1018.6 990.9
18 11.11 Ю 1 16 км 10/10 960 м
[]
+3.0 -0.8 76 +2 +2 1019.0 991.3 +0.4 +3.1
21 11.11 ЮВ 1 16 км 10/10 600 м
[]
+4.3 -0.8 69 +4 +4 1017.0 989.4
00 12.11 Ю 2 16 км слаб. дождь 10/10 1000 м
[]
+2.8 +2.2 96 0 0 1017.0 989.4 +1.7 +4.9 0.5
03 12.11 Ю 2 6000 м слаб. дождь {осадки} 10/10 600 м
[]
+2.5 +2.2 98 1016.6
06 12.11 ЮВ 1 3200 м слаб. дождь {осадки} 10/10 200 м
[]
+2.5 +2.5 100 +2 +2 1016.0 988.4 +1.7 +4.9 1
09 12.11 С 1 300 м слаб. дождь {осадки} 10/10 300 м
[]
+2.6 +2.6 100 1015.3
12 12.11 ЮВ 1 8000 м слаб. дождь {осадки} 10/10 300 м
[]
+2.9 +2.9 100 +2 +2 1014.4 986.9 +2.3 +4.9 0.8
15 12.11 ЮВ 1 8000 м слаб. дождь {осадки} 10/10 600 м
[]
+3.0 +3.0 100 +2 +2 1014.9 987.3
18 12.11 Ю 2 16 км {осадки} 10/10 300 м
[]
+5.0 +3.8 92 +3 +3 1014.3 986.8 +2.3 +5.2 5
21 12.11 Ю 2 16 км слаб. дождь {осадки} 10/10 300 м
[]
+5.9 +4.4 90 +3 +3 1012.4 985.0
00 13.11 ЮЗ 1 16 км слаб. дождь {осадки} 10/10 300 м
[]
+5.8 +4.8 93 +4 +4 1011.7 984.3 +2.4 +6.4 2
03 13.11 З 1 9000 м слаб. дождь {осадки} 10/10 300 м
[]
+4.9 +4.8 99 1011.5
06 13.11 ЮВ 2 11 км слаб. дождь {осадки} 10/10 150 м
[]
+4.6 +4.4 99 +2 +2 1010.1 982.8 +2.4 +6.4 4
09 13.11 Ю 2 9000 м слаб. дождь {осадки} 10/10 1000 м
[]
+3.8 +3.7 99 1006.8
12 13.11 Ю 2 16 км слаб. дождь {осадки} 10/10 1500 м
[]
+3.2 +3.2 100 +1 +1 1001.5 974.4 +3.2 +6.4 6
15 13.11 ЮВ 3 16 км слаб. дождь {осадки} 10/10 1500 м
[]
+4.4 +3.5 94 +1 +1 999.6 972.6
18 13.11 Ю 5 8000 м дождь {осадки} 10/10 480 м
[]
+5.4 +4.7 95 +1 +1 1001.0 973.9 +3.0 +5.4 11
21 13.11 Ю 7 16 км слаб. дождь {осадки} 10/10 1000 м
[]
+6.2 +4.5 89 +1 +1 1001.8 974.7
00 14.11 Ю 6 16 км слаб. дождь {осадки} 10/10 420 м
[]
+5.9 +3.7 86 +1 +1 1001.6 974.5 +3.0 +6.5 7
03 14.11 Ю 3 16 км слаб. дождь {осадки} 10/10 300 м
[]
+5.5 +3.2 85 +2 +2 1003.1 976.0
06 14.11 Ю 9 16 км слаб. дождь {осадки} 10/0
[]
+5.6 +2.7 82 -0 -0 1004.3 977.2 +3.0 +6.5 0.3 61
09 14.11 Ю 7 16 км 5/0
[]
+7.2 +2.2 71 +3 +3 1006.7 979.6
12 14.11 ЮЗ 7 16 км ясно +7.0 +1.6 68 +2 +2 1010.1 982.9 +5.4 +6.5
15 14.11 Ю 6 16 км 10/0
[]
+6.2 +2.7 78 +2 +2 1011.8 984.5
18 14.11 Ю 9 16 км 5/5 1500 м
[]
+7.0 +2.8 75 +2 +2 1011.4 984.1 +5.4 +7.9
21 14.11 Ю 7 16 км слаб. дождь 10/10 1500 м
[]
+6.7 +3.4 79 1011.2
00 15.11 Ю 5 16 км слаб. дождь {осадки} 10/10 1000 м
[]
+5.5 +3.8 89 +1 +1 1010.5 983.3 +5.5 +7.8 2
03 15.11 ЮВ 3 14 км слаб. дождь {осадки} 10/10 1000 м
[]
+5.3 +4.0 91 1009.4
06 15.11 ЮВ 4 16 км слаб. дождь {осадки} 10/10 1000 м
[]
+5.4 +3.9 90 +2 +2 1008.0 980.8 +5.2 +7.9 5 81
09 15.11 ЮВ 2 16 км слаб. дождь {осадки} 10/10 600 м
[]
+5.1 +3.6 90 1005.8
12 15.11 Ю 3 16 км слаб. дождь {осадки} 10/10 600 м
[]
+4.6 +3.0 89 +1 +1 1003.8 976.7 +4.5 +7.9 7
15 15.11 ЮВ 3 16 км слаб. дождь 10/10 600 м
[]
+4.5 +2.9 89 +1 +1 1001.6 974.5
18 15.11 Ю 7 16 км слаб. дождь 9/9 1000 м
[]
+5.3 +3.2 86 0 0 1000.7 973.7 +4.3 +5.4 2
21 15.11 Ю 9 16 км 5/0 2000 м
[]
+7.2 +2.7 73 +2 +2 1000.8 973.8
00 16.11 Ю 6 16 км ясно +6.0 +2.5 78 +1 +1 999.7 972.7 +4.3 +7.5
03 16.11 Ю 6 16 км ясно +5.6 +2.1 78 +1 +1 998.9 971.9
06 16.11 С 2 16 км 10/10 300 м
[]
+3.1 +1.2 87 0 0 997.7 970.7 +2.7 +7.5 221
09 16.11 С 2 16 км 10/10 300 м
[]
+1.4 +0.5 94 -2 -2 997.3 970.3
12 16.11 С 2 16 км 10/10 300 м
[]
+0.7 +0.3 97 -2 -2 997.4 970.3 +0.7 +7.5
15 16.11 С 1 16 км слаб. дождь {осадки} 9/9 300 м
[]
+2.0 +1.4 96 998.1 971.4
18 16.11 Ю 8 16 км {осадки} ясно +5.2 +2.2 81 -0 -0 999.7 972.6 +0.7 +5.2 1
21 16.11 Ю 10 16 км 9/9 1000 м
[]
+6.1 +2.0 75 0 0 999.8 972.7
00 17.11 Ю 8 16 км 3/3 180 м
[]
+6.5 +1.2 69 +2 +2 1000.5 973.4 +0.7 +6.8
03 17.11 Ю 2 16 км слаб. дождь 10/10 1500 м
[]
+5.1 +1.8 79 1001.9
06 17.11 С 1 4800 м слаб. дождь 10/10 300 м
[]
+3.2 +2.8 97 +1 +1 1002.9 975.7 +0.7 +6.8 1 211
09 17.11 Ю 1 2400 м слаб. дождь {осадки} 10/10 50 м
[]
+2.0 +2.0 100 1004.4
12 17.11 С 3 16 км слаб. дождь {осадки} 10/10 240 м
[]
+1.8 +1.8 100 -2 -2 1006.0 978.8 +1.8 +6.8 5
15 17.11 С 2 16 км 10/10 300 м
[]
+1.0 +0.4 96 -2 -2 1009.2 981.8

 

Местоположение метеостанции Arviat (Канада): широта 61.10 долгота -94.06 высота над уровнем моря 10 м.

В архиве по умолчанию представлена погода в Arviat за последнюю неделю. Архивные данные за месяц целиком и за предыдущие месяцы, начиная с января 2011 года, Вы можете получить, выбрав интересующий диапазон дат из раскрывающегося списка и нажав кнопку "Ввод!".

Внимание! Время в таблицах - всемирное. Для получения местного времени необходимо прибавить поправку, которая в Arviat равна -6 ч.

Смотрите также архив погоды в соседних городах и на ближайших метеорологических станциях:

Погода в Arviat Airport (Канада) (1 км)
Погода в Rankin Inlet (Канада) (217 км)
Погода в Churchill Climate (Канада) (265 км)
Погода в Tadoule Lake (Канада) (362 км)
Погода в Baker Lake Airport (Канада) (370 км)
Погода в Baker Lake Climate (Канада) (372 км)
Погода в Dubawnt Lake (Канада) (462 км)
Погода в Gillam (Канада) (530 км)
Погода в Back River MAPS (Канада) (567 км)
Погода в Wager Bay (Канада) (579 км)

Пояснения к столбцам:

Ветер - указаны скорость ветра в м/с - средняя за 10 мин, порывы в срок и между сроками (в фигурных скобках) и направление, откуда дует ветер: С - северный, СВ - северо-восточный, В - восточный, ЮВ - юго-восточный, Ю - южный, ЮЗ - юго-западный, З - западный, СЗ - северо-западный.
Видимость - горизонтальная дальность видимости в метрах или километрах. При видимости от 1 до 10 км при отсутствии осадков обычно наблюдается дымка, при ухудшении видимости до 1 км и менее - туман. В сухую погоду видимость может ухудшаться дымом, пылью или мглою.
Явления - указаны атмосферные явления, наблюдавшиеся в срок или в последний час перед сроком; фигурными скобками обозначены явления, наблюдавшиеся между сроками (за 1-3 часа до срока); квадратными скобками обозначены град или гололедные отложения с указанием их диаметра в мм.
Облачность - указаны через наклонную черту общая и нижняя облачность в баллах и высота нижней границы облаков в метрах; квадратными скобками обозначены формы облаков: Ci - перистые, Cs - перисто-слоистые, Cc - перисто-кучевые, Ac - высококучевые, As - высокослоистые, Sc - слоисто-кучевые, Ns - слоисто-дождевые, Cu - кучевые, Cb - кучево-дождевые. Подробнее классификацию облаков см. в Атласе облаков (PDF).
T - Температура воздуха - температура, измеренная на высоте 2 м над землей.
Td - Температура точки росы - температура, при понижении до которой содержащийся в воздухе водяной пар достигнет насыщения.
f - Относительная влажность воздуха - влажноcть воздуха, измеренная на высоте 2 м над землей.
Te - Эффективная температура - температура, которую ощущает одетый по сезону человек в тени. Характеристика душности погоды. При расчете учитывается влияние влажности воздуха и скорости ветра на теплоощущения человека.
Tes - Эффективная температура на солнце - температура, которую ощущает человек, с поправкой на солнечный нагрев. Характеристика знойности погоды. Зависит от высоты солнца над горизонтом, облачности и скорости ветра. Ночью, в пасмурную погоду, а также при ветре 12 м/с и более поправка равна нулю.
P - Атмосферное давление - приведенное к уровню моря атмосферное давление.
Po - Атмосферное давление - измеренное на уровне метеостанции атмосферное давление.
Tmin - Минимальная температура - минимум температуры воздуха на высоте 2 м над землей.
Tmax - Максимальная температура - максимум температуры воздуха на высоте 2 м над землей.
R - Количество осадков - Количество выпавших осадков за период времени, мм. При наведении курсора мыши на число - период времени, за который выпало указанное количество осадков.
R24 - Количество осадков - Количество выпавших осадков за 24 часа, мм.
S - Снежный покров - Высота снежного покрова, см. При наведении курсора мыши на число - состояние снежного покрова и степень покрытия местности в баллах.